LEMUR-2-KANE

Last updated on Sat Apr 08 2017 00:15:04 GMT+0000 (Coordinated Universal Time)

1 41489U 98067JK 17096.95849574 .05053431 12134-4 92051-3 0 9996 2 41489 51.6245 353.7306 0010181 253.9379 106.0523 16.31442564 50072

Satellite not in orbit